Location: Apeadero de Los Molinos-Guadarrama
(40.7091°N, 4.0689°W)
Time: 23:57:28
(UTC+00:00)

ISS - Pass Details

Date: 02 October 2021
Orbit: 417 x 423 km, 51.6° (Epoch: 24 October)

Event Time Altitude Azimuth Distance (km) Brightness Sun altitude
Rises 20:41:05 0° 298° (WNW) 2,364 1.2 -31.3°
Reaches altitude 10° 20:43:19 10° 288° (WNW) 1,498 -0.1 -31.7°
Enters shadow 20:43:32 11° 286° (WNW) 1,420 -0.3 -31.7°
